Home > Weather > Adak > Past weeks

Flag for USA Past Weather in Adak, Alaska, USA — Yesterday and Last 2 Weeks

Now
48 °F

Mostly cloudy.


Feels Like: 46 °F
Forecast: 46 / 50 °F
Wind: 5 mph from Southeast

Location: Adak

Current Time: Jul 1, 2016 at 3:23:11 PM

Latest Report: Jul 1, 2016 at 2:56 PM


Visibility: 10 mi

Pressure: 29.84 "Hg

Humidity: 76%

Dew Point: 41 °F

Location of AdakLocation

Past Weather in Adak — Graph

°F

Adak Temperature Yesterday

Maximum temperature yesterday: 48 °F (at 10:56 AM)
Minimum temperature yesterday: 46 °F (at 12:16 AM)
Average temperature yesterday: 47 °F

High & Low Weather Summary for the Past Weeks

 TemperatureHumidityPressure
High61 °F (Jun 24, 1:16 PM)81% (Jun 20, 5:36 AM)30.41 "Hg (Jun 20, 5:36 AM)
Low39 °F (Jun 25, 4:16 AM)51% (Jun 16, 4:16 PM)29.66 "Hg (Jun 28, 8:36 PM)
Average48 °F72%29.97 "Hg
* Reported Jun 16 2:16 PM — Jul 1 2:16 PM, Adak, Weather by CustomWeather, © 2016

Note: Actual official high and low records may vary slightly from our data, if they occured in-between our weather recording intervals... More about our weather records

Advertising

Adak Weather History for the Previous 24 Hours

Scroll right to see more
 ConditionsComfort  
Time TempWeatherWind HumidityBarometerVisibility
2:16 PM
Fri, Jul 1
48 °FOvercast.7 mph71%29.85 "Hg10 mi
1:56 PM48 °FOvercast.8 mph71%29.85 "Hg10 mi
1:36 PM48 °FOvercast.7 mph71%29.85 "Hg10 mi
1:16 PM48 °FMostly cloudy.5 mph71%29.85 "Hg10 mi
12:56 PM48 °FMore clouds than sun.6 mph71%29.85 "Hg10 mi
12:36 PM48 °FMostly cloudy.8 mph71%29.84 "Hg10 mi
12:16 PM48 °FBroken clouds.7 mph71%29.84 "Hg10 mi
11:56 AM48 °FMore clouds than sun.8 mph71%29.84 "Hg10 mi
11:36 AM48 °FMostly cloudy.7 mph71%29.84 "Hg10 mi
11:16 AM48 °FBroken clouds.7 mph71%29.84 "Hg10 mi
10:56 AM46 °FMostly cloudy.6 mph76%29.84 "Hg10 mi
10:36 AM46 °FCloudy.8 mph76%29.84 "Hg9 mi
10:16 AM46 °FMostly cloudy.8 mph76%29.84 "Hg10 mi
9:56 AM46 °FMore clouds than sun.8 mph76%29.84 "Hg10 mi
9:36 AM46 °FMostly cloudy.7 mph76%29.84 "Hg10 mi
9:16 AM46 °FCloudy.6 mph76%29.83 "Hg10 mi
8:56 AM46 °FOvercast.7 mph76%29.83 "Hg10 mi
8:36 AM46 °FMore clouds than sun.6 mph76%29.83 "Hg10 mi
8:16 AM46 °FMostly cloudy.6 mph76%29.83 "Hg10 mi
7:56 AM46 °FOvercast.No wind71%29.83 "Hg10 mi
7:36 AM46 °FOvercast.3 mph71%29.82 "Hg10 mi
7:16 AM46 °FOvercast.5 mph71%29.83 "Hg10 mi
6:56 AM46 °FOvercast.5 mph76%29.83 "Hg10 mi
6:36 AM46 °FOvercast.6 mph76%29.83 "Hg10 mi
6:16 AM46 °FLow clouds.8 mph76%29.83 "Hg10 mi
5:56 AM46 °FLow clouds.5 mph76%29.83 "Hg10 mi
5:36 AM46 °FOvercast.6 mph76%29.83 "Hg10 mi
5:16 AM46 °FOvercast.8 mph76%29.83 "Hg10 mi
4:56 AM46 °FOvercast.7 mph76%29.83 "Hg10 mi
4:36 AM46 °FMostly cloudy.5 mph76%29.83 "Hg10 mi
4:16 AM46 °FLow clouds.No wind76%29.83 "Hg7 mi
3:56 AM46 °FLow clouds.5 mph76%29.83 "Hg5 mi
3:36 AM46 °FLow clouds.6 mph76%29.83 "Hg9 mi
3:16 AM46 °FLow clouds.6 mph76%29.83 "Hg10 mi
2:56 AM46 °FMostly cloudy.8 mph76%29.83 "Hg10 mi
2:36 AM46 °FMostly cloudy.12 mph76%29.83 "Hg10 mi
2:16 AM46 °FMostly cloudy.7 mph76%29.82 "Hg10 mi
1:56 AM46 °FOvercast.5 mph76%29.83 "Hg10 mi
1:36 AM46 °FOvercast.8 mph76%29.83 "Hg10 mi
1:16 AM46 °FMostly cloudy.8 mph76%29.83 "Hg10 mi
12:56 AM46 °FOvercast.6 mph76%29.83 "Hg10 mi
12:36 AM46 °FMostly cloudy.3 mph76%29.83 "Hg10 mi
12:16 AM46 °FOvercast.7 mph76%29.83 "Hg10 mi
11:56 PM
Thu, Jun 30
46 °FMostly cloudy.7 mph76%29.83 "Hg10 mi
11:36 PM46 °FMostly cloudy.8 mph76%29.83 "Hg10 mi
11:16 PM46 °FOvercast.8 mph76%29.83 "Hg10 mi
10:56 PM46 °FOvercast.6 mph76%29.82 "Hg10 mi
10:36 PM46 °FOvercast.8 mph76%29.81 "Hg10 mi
10:16 PM46 °FOvercast.8 mph76%29.81 "Hg10 mi
9:56 PM46 °FOvercast.7 mph76%29.81 "Hg10 mi
9:36 PM46 °FOvercast.9 mph76%29.80 "Hg10 mi
9:16 PM46 °FOvercast.7 mph76%29.80 "Hg10 mi
8:56 PM48 °FMostly cloudy.7 mph71%29.80 "Hg10 mi
8:36 PM48 °FMostly cloudy.7 mph71%29.79 "Hg10 mi
8:16 PM48 °FMostly cloudy.7 mph71%29.79 "Hg10 mi
7:56 PM48 °FOvercast.6 mph71%29.79 "Hg9 mi
7:36 PM48 °FOvercast.6 mph71%29.78 "Hg10 mi
7:16 PM48 °FOvercast.7 mph71%29.78 "Hg10 mi
6:56 PM48 °FMostly cloudy.7 mph71%29.78 "Hg10 mi
6:36 PM48 °FMostly cloudy.8 mph71%29.78 "Hg10 mi
6:16 PM48 °FOvercast.7 mph71%29.78 "Hg10 mi
5:56 PM48 °FMore clouds than sun.7 mph71%29.78 "Hg10 mi
5:36 PM48 °FOvercast.7 mph71%29.78 "Hg10 mi
5:16 PM48 °FOvercast.8 mph71%29.78 "Hg10 mi
4:56 PM48 °FOvercast.9 mph71%29.77 "Hg10 mi
4:36 PM48 °FOvercast.9 mph71%29.77 "Hg10 mi
4:16 PM48 °FMostly cloudy.9 mph71%29.77 "Hg10 mi
3:56 PM48 °FMostly cloudy.12 mph71%29.77 "Hg10 mi
3:36 PM48 °FMostly cloudy.10 mph71%29.77 "Hg10 mi
3:16 PM48 °FLow clouds.8 mph71%29.77 "Hg10 mi
Weather by CustomWeather, © 2016

See weather overviewHow to use our weather pages